ATLAS 5 CENTAUR DEB, 44661

Orbit data source: Space-Track

ATLAS 5 CENTAUR DEB, 44661 is space debris in HEO originally from a launch on Wed, 17 Oct 2018 UTC launched from the Air Force Eastern Test Range (AFETR). Debris objects in space refer to the collection of defunct objects orbiting the Earth. Examples of debris include non-operational satellites, rocket bodies, and fragments generated from explosions, collisions, or faulty payload assembly.

Loading next visibility...
Identifier
44661, 2018-079X
Orbit
HEO
Country
Flag of USUS
Related business
Flag of USUnited Launch Alliance/Lockheed Martin (US)
Manufacturer
ULA Decatur
Mission
Spacecraft
Bus & Motor
Unknown
Mass
Unknown
Launch date (UTC)
2018-10-17 (8 years ago)
Launch vehicle
Unknown
Launch site
Air Force Eastern Test Range (AFETR)
Object type
Payload
Rocket body
Debris
Shape & HBR
Unknown shape, 1.1 m
Radar Cross Section
Medium (>0.1 m² and <1 m²)

Expand to show TLE details & history
Last TLE update: 4 days ago

TLE from 4 days ago
0 ATLAS 5 CENTAUR DEB
1 44661U 18079X   26169.52176937 -.00000116  00000-0  00000-0 0  9999
2 44661  13.0287  61.5575 4627195 259.3767  46.9337  1.72652499 48623
Epoch: 2026-06-18T12:31Z
TLE epoch observation values (Epoch: 2026-06-18T12:31:20.873Z)
Latitude
0.00004°
Longitude
-33.07559°
Altitude
18,870.511 km
Speed
4.242 km/s
True Right ascension
04h 06m 06s
True Declination
0° 00' 00"
Sunlit
Object was in daylight at epoch
Visualization orbit readout
Latitude
Unknown
Longitude
Unknown
Altitude
Unknown
Speed
Unknown
Apparent Right ascension
Unknown
Apparent Declination
Unknown
Sunlit
N/A
Visualization observer readout
Local Sidereal Time
21:41:10
Azimuth
Unknown
Elevation
Unknown
Doppler factor
Unknown
Orbital elements
Apogee altitude
36,556.786 km
Perigee altitude
9,392.554 km
Semi-major axis
29,352.807 km
Eccentricity
0.46272
Inclination
13.0287°
RAAN
61.5575°
Arg. of periapsis
259.3767°
True anomaly
100.51008°
Mean anomaly
46.9337°
Eccentric anomaly
72.17255°
Mean motion
0.43159 °/min
Orbital period
834.13 mins
BSTAR
0
Loading maneuver chart data...
Computing Atmospheric mass density...

Documentation

Showing up to 5 results
|